Regional Weather Roundup
Issued by NWS

Home | Current Version | Previous Version | Graphics & Text | Print | Product List | Glossary On
Versions: 1 2 3 4 5 6 7 8 9 10 11 12 13 14 15 16 17 18 19 20 21 22 23 24 25 26 27 28 29 30 31 32 33 34 35 36 37 38 39 40 41 42 43 44 45 46 47 48 49 50
423
ASUS43 KOAX 082010
RWRNE

WEATHER ROUNDUP FOR NEBRASKA
NATIONAL WEATHER SERVICE OMAHA NE
200 PM CST THU DEC 08 2016

NOTES: SATELLITE DATA IS BEING USED TO AUGMENT CLOUD COVER ABOVE
       12000 FEET.
       "FAIR" INDICATES FEW OR NO CLOUDS BELOW 12,000 FEET WITH NO
       SIGNIFICANT WEATHER AND/OR OBSTRUCTIONS TO VISIBILITY.

  * THESE STATIONS DO NOT REPORT WEATHER SUCH AS RAIN...SNOW OR FOG.

NEZ001>004-019>022-054>056-082100-
NEBRASKA PANHANDLE

CITY           SKY/WX    TMP DP  RH WIND       PRES   REMARKS
SCOTTSBLUFF    SUNNY     16  -3  43 E3        30.44F
ALLIANCE       SUNNY     15  -1  49 CALM      30.44F
CHADRON        SUNNY     15  -4  42 NE6       30.51F WCI   6
SIDNEY         SUNNY     14   2  58 SW3       30.43F
$$

NEZ057>060-069>072-079>082-082100-
SOUTHWEST NEBRASKA

CITY           SKY/WX    TMP DP  RH WIND       PRES   REMARKS
NORTH PLATTE   SUNNY     21  -1  38 W6        30.56F WCI  13
IMPERIAL       SUNNY     15   2  56 N5        30.53F WCI   8
MCCOOK         SUNNY     15   4  61 NW8       30.59F WCI   4
$$

NEZ005>010-023>029-035>040-094-082100-
NORTH CENTRAL NEBRASKA

CITY           SKY/WX    TMP DP  RH WIND       PRES   REMARKS
VALENTINE      SUNNY     15  -3  44 N12       30.56F WCI   2
BROKEN BOW     SUNNY     21   0  39 NW9       30.56F WCI  11
ORD            SUNNY     22   0  38 NW15      30.57F WCI   9
$$

NEZ041-046>049-061>064-073>077-083>087-082100-
SOUTH CENTRAL NEBRASKA

CITY           SKY/WX    TMP DP  RH WIND       PRES   REMARKS
GRAND ISLAND   SUNNY     23   6  48 NW13      30.60F WCI  11
HASTINGS       SUNNY     25   5  42 NW17      30.60F WCI  12
KEARNEY *      SUNNY     23   1  39 N10       30.60S WCI  12
$$

NEZ011>018-030>034-042>045-082100-
NORTHEAST NEBRASKA

CITY           SKY/WX    TMP DP  RH WIND       PRES   REMARKS
TEKAMAH        SUNNY     24   8  50 NW20      30.59F WCI  10
$$

NEZ050>053-065>068-078-088>093-082100-
SOUTHEAST NEBRASKA

CITY           SKY/WX    TMP DP  RH WIND       PRES   REMARKS
LINCOLN        SUNNY     25   8  48 N16       30.62F WCI  12
OMAHA EPPLEY   MOSUNNY   24   8  50 NW15      30.59F WCI  11
FALLS CITY     SUNNY     24   9  52 NW15G24   30.61S WCI  11
$$

NEZ044-045-051>053-067-082100-
OMAHA AREA

CITY           SKY/WX    TMP DP  RH WIND       PRES   REMARKS
OMAHA EPPLEY   MOSUNNY   24   8  50 NW15      30.59F WCI  11
OFFUTT AFB     SUNNY     24   8  51 NW18G26   30.59F WCI  10
$$




USA.gov is the U.S. government's official web portal to all federal, state and local government web resources and services.